7 * 24
多渠道服务支持
QIANFAN-35 是中国“北斗”卫星导航系统的重要组成部分,于2023年成功发射。该卫星采用先进技术和高精度原子钟,提升了全球定位、导航和授时服务的稳定性和准确性。QIANFAN-35 的成功部署进一步增强了北斗系统的全球覆盖能力,为交通运输、气象预报、灾害预警等多个领域提供可靠支持,标志着中国在卫星导航技术领域的持续进步和自主创新能力的提升。
中国
(CN)
| 数据来源 | 国际轨道数据 |
| 星历时间: | 2026-06-20T18:29:05+0800 1天前 查看轨道信息 |
| 半长轴: | 7175.647km |
| 偏心率: | 0.0007862 |
| 轨道倾角: | 88.982° |
| 近地点辐角 | 38.232° |
| 升交点赤经 | 54.612° |
| 平近点角 | 321.943° |
| 近地点: | 791.868km |
| 远地点: | 803.152km |
| 周期: | 100.821分钟 |
| 每日圈数: | 14.282729 |